Regional Weather Roundup
Issued by NWS

Home | Current Version | Previous Version | Text Only | Print | Product List | Glossary On
Versions: 1 2 3 4 5 6 7 8 9 10 11 12 13 14 15 16 17 18 19 20 21 22 23 24 25 26 27 28 29 30 31 32 33 34 35 36 37 38 39 40 41 42 43 44 45 46 47 48 49 50
000
ASUS43 KMPX 010510
RWRMN
WEATHER ROUNDUP FOR MINNESOTA
NATIONAL WEATHER SERVICE TWIN CITIES/CHANHASSEN MN
1100 PM CST SUN FEB 28 2021


NOTE: "FAIR" INDICATES FEW OR NO CLOUDS BELOW 12,000 FEET WITH NO
SIGNIFICANT WEATHER AND/OR OBSTRUCTIONS TO VISIBILITY. N/A MEANS
CURRENT SKY AND/OR WEATHER CONDITIONS ARE NOT AVAILABLE.

MNZ060>063-068>070-010600-
   Twin Cities Metro

CITY           SKY/WX    TMP DP  RH WIND       PRES   REMARKS
TWIN CITIES    MOCLDY    21  12  68 W10       30.07S WCI  10
ST PAUL        MOCLDY    22  11  62 NW10G20   30.09R WCI  11
CRYSTAL        MOCLDY    20  11  68 W5        30.06R WCI  13
LAKEVILLE      PTCLDY    18  12  79 W6        30.08R WCI   9
EDEN PRAIRIE   MOCLDY    20  13  74 NW7       30.07R WCI  11
SOUTH ST PAUL  PTCLDY    22  12  66 W6        30.08R WCI  14
LAKE ELMO      MOCLDY    19  10  68 MISG      30.07R
$$
MNZ001>005-007-008-013>017-022>024-027-028-010600-
   Northwest Minnesota

CITY           SKY/WX    TMP DP  RH WIND       PRES   REMARKS
BEMIDJI        FLURRIES  10   5  79 NW12      30.07R WCI  -4
HALLOCK        CLEAR      3  -4  72 N12       30.20R WCI -13
ROSEAU         CLEAR      9 -11  40 N18       30.16R WCI -10
WARROAD        CLEAR      3  -6  66 NW9       30.15R WCI -11
THIEF RVR FALL MOCLDY     9  -3  58 N15       30.14R WCI  -8
CROOKSTON      PTCLDY    10  -4  52 N18G26    30.17R WCI  -8
FOSSTON        CLOUDY     9   0  66 N12       30.11R WCI  -6
DETROIT LAKES  LGT SNOW  12   9  85 N14       30.08R HAZE    WCI  -3
MOORHEAD       LGT SNOW  16   9  73 N18       30.15R VSB 1   WCI  -1
PARK RAPIDS    CLOUDY    13   4  67 N12       30.05R WCI  -1
MAHNOMEN       LGT SNOW  11   6  81 N16       30.10R WCI  -6
$$
MNZ006-009>011-018-025>026-010600-
   North Central Minnesota

CITY           SKY/WX    TMP DP  RH WIND       PRES   REMARKS
BAUDETTE       CLEAR      5  -4  66 NW16      30.09R WCI -14
FLAG ISLAND    CLEAR     -2 -17  50 NW13      30.13R WCI -21
INTL FALLS     CLEAR      6  -4  63 NW12      30.04R WCI  -9
WASKISH        PTCLDY     7   0  72 NW7       30.09R WCI  -5
BIG FORK       PTCLDY    10   0  61 NW5       30.09R WCI   2
LONGVILLE      CLOUDY    12   3  67 NW5       30.04R WCI   4
GRAND RAPIDS   MOCLDY    11   3  70 NW16      30.04R WCI  -6
CRANE LAKE     CLEAR      7  -4  61 N8G17     30.04R WCI  -6
ORR            PTCLDY     7  -6  56 NW13G21   30.00R WCI  -9
COOK           PTCLDY     9  -2  61 NW13G22   30.01R WCI  -7
WALKER         CLOUDY    12   4  71 NW10      30.06R WCI  -2
$$
MNZ012-019>021-037-010600-
   Northeast Minnesota

CITY           SKY/WX    TMP DP  RH WIND       PRES   REMARKS
DULUTH         PTCLDY    14   2  58 NW9G21    29.98R WCI   2
ELY            MOCLDY     9   0  66 NW15      29.96R WCI  -8
HIBBING        CLOUDY    11   2  67 NW20G26   30.00R WCI  -7
EVELETH        MOCLDY    11   1  64 NW13G21   30.00R WCI  -4
DULUTH HARBOR  MOCLDY    18   7  62 NW15      30.05R WCI   3
TWO HARBORS    PTCLDY    12   0  57 W5        29.99R WCI   4
SILVER BAY     PTCLDY    10  -2  56 W6        29.98R WCI   1
GRAND MARAIS     N/A     13  -2  51 VRB5      29.97R WCI   5
G MARAIS ARPRT PTCLDY     5  -6  61 NW5G17    29.85R WCI  -4
$$
MNZ029>031-032-039>041-046>048-054>057-064-010600-
   West Central Minnesota

CITY           SKY/WX    TMP DP  RH WIND       PRES   REMARKS
FERGUS FALLS   LGT SNOW  16  10  79 N9        30.06R VSB 1   WCI   4
WHEATON        LGT SNOW  19  12  73 N10       30.11R WCI   8
MORRIS         PTCLDY    19  10  68 N6        30.07S WCI  11
ALEXANDRIA     CLOUDY    17  10  74 N8        30.06R WCI   7
ELBOW LAKE     FLURRIES  17  11  78 NE10      30.07R WCI   4
WADENA         LGT SNOW  12   7  79 N10       30.06R WCI  -1
GLENWOOD       CLOUDY    18  12  79 N8        30.05R WCI   7
APPLETON       PTCLDY    19  16  86 NE5       30.06S WCI  13
BENSON         MOCLDY    14  12  92 CALM      30.07S
ORTONVILLE     CLOUDY    21  16  79 NE6       30.05S WCI  14
MADISON        MOCLDY    19  16  86 CALM      30.07S
WILLMAR        FAIR      18  12  79 CALM      30.10R
$$
MNZ033>034-036-042>043-049>051-058-059-010600-
   Central Minnesota

CITY           SKY/WX    TMP DP  RH WIND       PRES   REMARKS
ST CLOUD       CLOUDY    19   9  65 N6        30.05R WCI  11
SAUK CENTRE      N/A     18  11  73 N9        30.06R WCI   7
PAYNESVILLE    CLOUDY    19  16  86 CALM      30.06S
AITKIN         PTCLDY    12   5  73 NW3       30.04S
PINE RIVER     CLOUDY    16   7  67 N5        30.08R WCI   9
BRAINERD       CLOUDY    16   4  59 N8        30.05R WCI   5
STAPLES        CLOUDY    16   9  73 N9        30.06R WCI   4
LONG PRAIRIE   CLOUDY    18  10  73 N7        30.05R WCI   8
LITTLE FALLS   CLOUDY    19   7  58 NW6       30.06R WCI  11
CAMP RIPLEY    CLOUDY    17   9  70 NW7       30.06R WCI   8
LITCHFIELD     MOCLDY    18  16  93 CALM      30.07R
BUFFALO        CLOUDY    18  13  79 MISG      30.08R
MAPLE LAKE       N/A     20  15  79 CALM      30.07R
HUTCHINSON     CLOUDY    20  17  86 SW3       30.08S
$$
MNZ037-044-045-052-053-010600-
   East Central Minnesota

CITY           SKY/WX    TMP DP  RH WIND       PRES   REMARKS
PRINCETON      MOCLDY    19  10  68 NW8       30.05S WCI   9
MORA           MOCLDY    19   9  63 NW10      30.06R WCI   8
CAMBRIDGE      MOCLDY    21   9  58 NW9       30.06R WCI  11
RUSH CITY      CLOUDY    20   9  62 NW7       30.05R WCI  11
MOOSE LAKE     MOCLDY    16   5  62 NW6       30.02R WCI   7
HINCKLEY       PTCLDY    19   9  63 NW7       30.05R WCI  10
CLOQUET        MOCLDY    12   1  62 NW9G18    29.99R WCI   0
MCGREGOR       PTCLDY    14   5  67 NW6       30.04R WCI   5
$$
MNZ071>073-080-081-089-090-097-098-010600-
   Southwest Minnesota

CITY           SKY/WX    TMP DP  RH WIND       PRES   REMARKS
MONTEVIDEO     CLOUDY    18  12  79 CALM      30.07R
GRANITE FALLS  CLOUDY    16  13  87 S6        30.10R WCI   8
CANBY          CLOUDY    24  17  75 SW10      30.05F WCI  13
MARSHALL       PTCLDY    19  14  81 SW17      30.06S WCI   4
REDWOOD FALLS  MOCLDY    19  13  77 SW7       30.08R WCI  10
OLIVIA         MOCLDY    16  12  86 SW5       30.08S WCI   9
PIPESTONE        N/A     18  16  93 SW9       30.05F WCI   6
WINDOM         CLEAR     18  16  93 S6        30.07F WCI   9
WORTHINGTON    CLEAR     20  16  84 SW12      30.08F WCI   8
JACKSON        PTCLDY    21  18  86 SW7       30.09S WCI  13
TRACY          PTCLDY    20  13  73 SW13      30.07R WCI   8
SLAYTON        PTCLDY    17  13  84 S9        30.06F WCI   6
$$
MNZ065>067-074>077-082>085-091>093-010600-
   South Central Minnesota

CITY           SKY/WX    TMP DP  RH WIND       PRES   REMARKS
MANKATO        PTCLDY    20  17  88 W7        30.10S WCI  11
NEW ULM        PTCLDY    19  16  86 W5        30.09S WCI  13
ST JAMES       CLEAR     21  18  86 SW9       30.09R WCI  11
FAIRMONT       CLEAR     21  17  84 W14       30.11S WCI   8
GLENCOE        MOCLDY    20  15  82 SW5       30.08R WCI  13
FARIBAULT        N/A     18  16  93 SW5       30.08S WCI  11
OWATONNA       CLEAR     16  12  86 W7        30.08S WCI   6
WASECA         CLEAR     18  14  86 SW6       30.10S WCI   9
ALBERT LEA     CLEAR     19  18  93 W6        30.09S WCI  11
$$
MNZ078>079-086>088-094>096-010600-
   Southeast Minnesota

CITY           SKY/WX    TMP DP  RH WIND       PRES   REMARKS
ROCHESTER      CLEAR     17  12  80 W14       30.05R WCI   3
RED WING       PTCLDY    19  12  73 W5        30.07R WCI  13
STANTON        PTCLDY    19  14  79 SW3       30.07R
DODGE CENTER   CLEAR     18  12  79 W13       30.06S WCI   4
WINONA         CLEAR     23  14  68 W8        30.08R WCI  14
PRESTON        CLEAR     18  13  81 NW15      30.06R WCI   3
$$
ABBREVIATIONS USED IN REMARKS
   TC - TEMPERATURES IN CELSIUS
  WCI - WIND CHILL INDEX
   HX - HEAT INDEX
  VSB - VISIBILITY
$$



USA.gov is the U.S. government's official web portal to all federal, state and local government web resources and services.